Location: ?????
(31.8092°N, 35.2590°E)
Time: 17:13:33
(UTC+00:00)

Cosmos 1842 - Pass Details

Date: 20 June 2021
Orbit: 519 x 537 km, 82.5° (Epoch: 03 August)

Event Time Altitude Azimuth Distance (km) Brightness Sun altitude
Rises 17:28:07 0° 194° (SSW) 2,665 6.6 -8.2°
Reaches altitude 10° 17:30:17 10° 198° (SSW) 1,781 5.8 -8.6°
Maximum altitude 17:34:08 57° 277° (W) 636 4.0 -9.2°
Drops below altitude 10° 17:38:02 10° 357° (N) 1,798 6.5 -9.9°
Sets 17:40:13 0° 2° (N) 2,693 7.4 -10.3°
